Regional Weather Roundup
Issued by NWS

Home | Current Version | Previous Version | Graphics & Text | Print | Product List | Glossary On
Versions: 1 2 3 4 5 6 7 8 9 10 11 12 13 14 15 16 17 18 19 20 21 22 23 24 25 26 27 28 29 30 31 32 33 34 35 36 37 38 39 40 41 42 43 44 45 46 47 48 49 50
000
ASUS45 KBOU 301610
RWRCO

WEATHER ROUNDUP FOR COLORADO
NATIONAL WEATHER SERVICE DENVER/BOULDER CO
1000 AM MDT TUE JUN 30 2015

NOTE: "FAIR" INDICATES FEW OR NO CLOUDS BELOW 12000 FEET WITH NO
SIGNIFICANT WEATHER AND/OR OBSTRUCTIONS TO VISIBILITY.

COZ001>005-013-030-031-301700-
...NORTHWEST COLORADO...

CITY           SKY/WX    TMP DP  RH WIND       PRES   REMARKS
CRAIG          MOSUNNY   77  51  40 N5        30.25F
HAYDEN         MOSUNNY   73  48  40 E7        30.28F
MEEKER         SUNNY     76  46  34 VRB3      30.26F
MOUNT WERNER   NOT AVBL
STEAMBOAT SPGS MOSUNNY   71  50  47 CALM      30.30F
WALDEN         SUNNY     64  45  48 CALM      30.41S
$$

COZ006>008-011-301700-
...WEST CENTRAL VALLEYS...

CITY           SKY/WX    TMP DP  RH WIND       PRES   REMARKS
GRAND JUNCTION MOSUNNY   81  47  30 S8        30.13F
MONTROSE       MOSUNNY   80  49  33 SW3       30.23S
EAGLE          SUNNY     72  45  37 CALM      30.33F
RIFLE          SUNNY     79  49  34 CALM      30.20F
DELTA          MOSUNNY   83  49  30 SE6       30.19S
NUCLA          MOSUNNY   77  48  36 N3        30.28S
$$

COZ017>023-064>068-301700-
...SOUTHWEST COLORADO...

CITY           SKY/WX    TMP DP  RH WIND       PRES   REMARKS
DURANGO        SUNNY     74  52  46 NE5       30.33F
CORTEZ         SUNNY     81  48  31 CALM      30.24F
PAGOSA SPRINGS SUNNY     72  44  36 CALM      30.42F
TELLURIDE      MOSUNNY   71  41  33 CALM      30.51S
WOLF CREEK PAS NOT AVBL
$$

COZ009-010-012-014-032>034-037-058>063-301700-
...CENTRAL COLORADO...

CITY           SKY/WX    TMP DP  RH WIND       PRES   REMARKS
ASPEN          SUNNY     72  46  39 CALM      30.37F
BUENA VISTA    MOSUNNY   69  47  45 CALM      30.40S
COPPER MTN     SUNNY     61  30  31 W6        30.72S
BERTHOUD PASS  FAIR      52  43  71 MISG      30.76S
COTTONWOOD PAS NOT AVBL
GUNNISON       MOSUNNY   66  46  48 CALM      30.43F
KREMMLING      SUNNY     70  45  40 CALM      30.39F
LEADVILLE      MOSUNNY   69  36  29 N12G17    30.52F
MONARCH PASS   SUNNY     55  41  58 W8        30.82S
SALIDA         MOSUNNY   69  52  54 CALM      30.44F
SUNLIGHT       SUNNY     70  37  30 CALM      30.65S
WILKERSON PASS SUNNY     63  39  42 E6        30.68R
$$

COZ069>075-301700-
...SAN LUIS VALLEY/SANGRE DE CRISTO MOUNTAINS...

CITY           SKY/WX    TMP DP  RH WIND       PRES   REMARKS
ALAMOSA        SUNNY     69  49  48 VRB3      30.39F
LA VETA PASS   SUNNY     63  45  51 MISG      30.56F
SAGUACHE       SUNNY     70  50  49 S7        30.43S
$$

COZ035-036-038>040-301700-
...NORTHERN COLORADO FRONT RANGE...

CITY           SKY/WX    TMP DP  RH WIND       PRES   REMARKS
DENVER INTL AP MOSUNNY   81  52  36 W5        30.17F
DMNS CITY PARK   N/A     83  50  31 W1        30.17S
AURORA         NOT AVBL
FRONT RANGE AP MOSUNNY   81  55  41 MISG      30.19S
ERIE MUNI ARPT SUNNY     82  48  31 CALM      30.14F
BOULDER MUN AP SUNNY     79  52  38 CALM      30.15F
CENTENNIAL     MOSUNNY   78  50  37 SW3       30.21S
BROOMFIELD     MOSUNNY   79  52  38 CALM      30.19F
FORT COLLINS   SUNNY     77  55  47 S3        30.15S
LONGMONT       SUNNY     83  51  32 CALM      30.15F
$$

COZ041-046-047-076>085-087-088-301700-
...PIKES PEAK/PALMER DIVIDE AND SOUTHERN FOOTHILLS...

CITY           SKY/WX    TMP DP  RH WIND       PRES   REMARKS
COLO. SPRINGS  MOSUNNY   76  53  44 S8        30.26S
A. F. ACADEMY  SUNNY     77  51  39 SE6       30.26F
ELLICOTT       SUNNY    N/A N/A N/A S14       30.24F
FALCON         SUNNY     77  48  35 SW12      30.31F
FORT CARSON    NOT AVBL
LIMON          SUNNY     80  54  40 SW10      30.18F
MONUMENT HILL  SUNNY     77  50  38 CALM      30.31S
TRINIDAD       SUNNY     81  51  35 VRB7      30.24F
$$

COZ042>045-048>051-090-091-301700-
...NORTHEAST COLORADO...

CITY           SKY/WX    TMP DP  RH WIND       PRES   REMARKS
GREELEY ARPT   SUNNY     81  54  39 CALM      30.13F
AKRON          SUNNY     82  57  42 W8        30.12S
BURLINGTON     SUNNY     87  44  22 SW10      30.11F
WRAY           SUNNY     91  52  27 SW9       30.05F
STERLING       SUNNY     81  63  54 S8        30.06F
HOLYOKE        SUNNY     86  63  45 SW5       30.05S
FORT MORGAN    SUNNY     80  57  45 SW3       30.11F
$$

COZ086-089-092>099-301700-
...SOUTHEAST COLORADO...

CITY           SKY/WX    TMP DP  RH WIND       PRES   REMARKS
PUEBLO         SUNNY     83  54  36 CALM      30.15F
LA JUNTA       SUNNY     82  57  42 SW5       30.12F
LAMAR          SUNNY     84  58  40 VRB3      30.08F
SPRINGFIELD      N/A     85  50  29 SW10G18   30.15S
$$



USA.gov is the U.S. government's official web portal to all federal, state and local government web resources and services.